When you browse on this site, cookies collect data to enhance your experience and personalize the content and advertising you see.
Visit our Privacy Policy to learn more. By continuing to use the site, you agree to this use of cookies and data.
  • In Slovakia
  • List of Countries
  • For 7 days
  • Water Temperature
  • Satellite Maps
  • Weather Map
  • Weather Widgets
  • user-avatar
    Login

    Hourly Weather Gluchowek

    Today, 16 July, Tuesday

    Time Temperature Precipitation Wind Pressure Humidity
    00:00 +14°C° 0.1 mm 1 mps 744 mmHg 87%
    01:00 +14°C° 0.1 mm 1 mps 744 mmHg 87%
    02:00 +12°C° 0 mm 0 mps 743 mmHg 84%
    03:00 +13°C° 0 mm 1 mps 743 mmHg 85%
    04:00 +13°C° 0 mm 1 mps 743 mmHg 87%
    05:00 +13°C° 0 mm 2 mps 743 mmHg 88%
    06:00 +14°C° 0 mm 2 mps 743 mmHg 84%
    07:00 +16°C° 0 mm 3 mps 743 mmHg 80%
    08:00 +17°C° 0 mm 3 mps 743 mmHg 77%
    09:00 +18°C° 0.3 mm 4 mps 743 mmHg 75%
    10:00 +19°C° 0.3 mm 5 mps 742 mmHg 73%
    11:00 +20°C° 0.3 mm 6 mps 742 mmHg 71%
    12:00 +19°C° 0.2 mm 6 mps 742 mmHg 69%
    13:00 +19°C° 0.2 mm 6 mps 742 mmHg 68%
    14:00 +17°C° 0.2 mm 7 mps 742 mmHg 67%
    15:00 +17°C° 0 mm 6 mps 742 mmHg 67%
    16:00 +16°C° 0 mm 6 mps 742 mmHg 67%
    17:00 +16°C° 0 mm 5 mps 742 mmHg 67%
    18:00 +15°C° 0 mm 5 mps 741 mmHg 71%
    19:00 +15°C° 0 mm 4 mps 741 mmHg 75%
    20:00 +15°C° 0 mm 4 mps 741 mmHg 80%
    21:00 +14°C° 0 mm 3 mps 741 mmHg 84%
    22:00 +13°C° 0 mm 3 mps 742 mmHg 89%
    23:00 +12°C° 0 mm 3 mps 742 mmHg 94%

    Tomorrow, 17 July, Wednesday

    Time Temperature Precipitation Wind Pressure Humidity
    00:00 +12°C° 0 mm 3 mps 742 mmHg 94%
    01:00 +12°C° 0 mm 2 mps 742 mmHg 95%
    02:00 +12°C° 0 mm 2 mps 742 mmHg 95%
    03:00 +12°C° 0.1 mm 2 mps 741 mmHg 95%
    04:00 +11°C° 0.1 mm 3 mps 741 mmHg 96%
    05:00 +11°C° 0.1 mm 3 mps 741 mmHg 96%
    06:00 +12°C° 0.5 mm 4 mps 740 mmHg 94%
    07:00 +12°C° 0.5 mm 5 mps 740 mmHg 92%
    08:00 +13°C° 0.5 mm 6 mps 740 mmHg 90%
    09:00 +14°C° 0.2 mm 6 mps 740 mmHg 85%
    10:00 +15°C° 0.2 mm 6 mps 740 mmHg 80%
    11:00 +16°C° 0.2 mm 6 mps 740 mmHg 75%
    12:00 +17°C° 0.6 mm 6 mps 740 mmHg 73%
    13:00 +17°C° 0.6 mm 7 mps 740 mmHg 71%
    14:00 +18°C° 0.6 mm 7 mps 740 mmHg 69%
    15:00 +18°C° 0.5 mm 7 mps 741 mmHg 70%
    16:00 +19°C° 0.5 mm 6 mps 741 mmHg 70%
    17:00 +19°C° 0.5 mm 6 mps 741 mmHg 71%
    18:00 +17°C° 0.1 mm 5 mps 741 mmHg 74%
    19:00 +17°C° 0.1 mm 4 mps 741 mmHg 77%
    20:00 +16°C° 0.1 mm 3 mps 741 mmHg 81%
    21:00 +14°C° 0 mm 3 mps 742 mmHg 84%
    22:00 +12°C° 0 mm 3 mps 742 mmHg 88%
    23:00 +11°C° 0 mm 3 mps 742 mmHg 91%

    Day after tomorrow, 18 July, Thursday

    Time Temperature Precipitation Wind Pressure Humidity
    00:00 +11°C° 0 mm 3 mps 742 mmHg 92%
    01:00 +10°C° 0 mm 3 mps 742 mmHg 94%
    02:00 +10°C° 0 mm 3 mps 742 mmHg 95%
    03:00 +11°C° 0 mm 4 mps 742 mmHg 94%
    04:00 +12°C° 0 mm 4 mps 742 mmHg 93%
    05:00 +13°C° 0 mm 4 mps 742 mmHg 92%
    06:00 +14°C° 0 mm 4 mps 742 mmHg 89%
    07:00 +15°C° 0 mm 4 mps 742 mmHg 85%
    08:00 +15°C° 0 mm 4 mps 743 mmHg 82%
    09:00 +18°C° 0.1 mm 4 mps 743 mmHg 77%
    10:00 +19°C° 0.1 mm 4 mps 743 mmHg 72%
    11:00 +20°C° 0.1 mm 4 mps 743 mmHg 67%
    12:00 +21°C° 0.4 mm 5 mps 743 mmHg 66%
    13:00 +22°C° 0.4 mm 5 mps 743 mmHg 65%
    14:00 +22°C° 0.4 mm 5 mps 743 mmHg 64%
    15:00 +22°C° 0.2 mm 5 mps 743 mmHg 63%
    16:00 +22°C° 0.2 mm 5 mps 743 mmHg 63%
    17:00 +22°C° 0.2 mm 5 mps 743 mmHg 62%
    18:00 +21°C° 0.1 mm 4 mps 743 mmHg 68%
    19:00 +20°C° 0.1 mm 3 mps 744 mmHg 73%
    20:00 +19°C° 0.1 mm 2 mps 744 mmHg 79%
    21:00 +17°C° 0 mm 2 mps 744 mmHg 82%
    22:00 +16°C° 0 mm 2 mps 744 mmHg 85%
    23:00 +15°C° 0 mm 2 mps 744 mmHg 88%

    19 July, Friday

    Time Temperature Precipitation Wind Pressure Humidity
    00:00 +14°C° 0 mm 1 mps 745 mmHg 89%
    01:00 +14°C° 0 mm 1 mps 745 mmHg 90%
    02:00 +14°C° 0 mm 1 mps 745 mmHg 91%
    03:00 +13°C° 0 mm 1 mps 745 mmHg 92%
    04:00 +13°C° 0 mm 1 mps 745 mmHg 92%
    05:00 +13°C° 0 mm 1 mps 745 mmHg 93%
    06:00 +15°C° 0 mm 1 mps 745 mmHg 88%
    07:00 +16°C° 0 mm 1 mps 745 mmHg 82%
    08:00 +19°C° 0 mm 1 mps 746 mmHg 77%
    09:00 +19°C° 0 mm 2 mps 746 mmHg 69%
    10:00 +21°C° 0 mm 2 mps 746 mmHg 61%
    11:00 +23°C° 0 mm 2 mps 746 mmHg 53%
    12:00 +24°C° 0 mm 2 mps 746 mmHg 51%
    13:00 +24°C° 0 mm 2 mps 746 mmHg 48%
    14:00 +25°C° 0 mm 2 mps 746 mmHg 45%
    15:00 +25°C° 0 mm 2 mps 746 mmHg 46%
    16:00 +25°C° 0 mm 2 mps 745 mmHg 47%
    17:00 +25°C° 0 mm 2 mps 745 mmHg 48%
    18:00 +24°C° 0 mm 1 mps 745 mmHg 53%
    19:00 +22°C° 0 mm 1 mps 745 mmHg 59%
    20:00 +19°C° 0 mm 0 mps 745 mmHg 64%
    21:00 +20°C° 0 mm 1 mps 746 mmHg 65%
    22:00 +19°C° 0 mm 1 mps 746 mmHg 66%
    23:00 +18°C° 0 mm 1 mps 746 mmHg 66%

    20 July, Saturday

    Time Temperature Precipitation Wind Pressure Humidity
    00:00 +16°C° 0 mm 2 mps 746 mmHg 68%
    01:00 +16°C° 0 mm 2 mps 746 mmHg 70%
    02:00 +15°C° 0 mm 2 mps 746 mmHg 72%
    03:00 +15°C° 0 mm 1 mps 746 mmHg 75%
    04:00 +15°C° 0 mm 1 mps 746 mmHg 78%
    05:00 +14°C° 0 mm 1 mps 746 mmHg 80%
    06:00 +16°C° 0 mm 1 mps 747 mmHg 75%
    07:00 +19°C° 0 mm 1 mps 747 mmHg 70%
    08:00 +20°C° 0 mm 2 mps 747 mmHg 65%
    09:00 +23°C° 0 mm 2 mps 747 mmHg 59%
    10:00 +24°C° 0 mm 2 mps 747 mmHg 54%
    11:00 +26°C° 0 mm 2 mps 748 mmHg 49%
    12:00 +26°C° 0 mm 1 mps 747 mmHg 47%
    13:00 +27°C° 0 mm 1 mps 747 mmHg 45%
    14:00 +25°C° 0 mm 0 mps 747 mmHg 44%
    15:00 +27°C° 0 mm 1 mps 747 mmHg 45%
    16:00 +27°C° 0 mm 1 mps 747 mmHg 45%
    17:00 +27°C° 0 mm 1 mps 747 mmHg 46%
    18:00 +25°C° 0 mm 1 mps 747 mmHg 51%
    19:00 +24°C° 0 mm 1 mps 747 mmHg 57%
    20:00 +23°C° 0 mm 1 mps 747 mmHg 62%
    21:00 +22°C° 0 mm 1 mps 748 mmHg 66%
    22:00 +20°C° 0 mm 1 mps 748 mmHg 69%
    23:00 +19°C° 0 mm 1 mps 748 mmHg 73%

    21 July, Sunday

    Time Temperature Precipitation Wind Pressure Humidity
    00:00 +19°C° 0 mm 1 mps 748 mmHg 76%
    01:00 +18°C° 0 mm 1 mps 748 mmHg 79%
    02:00 +18°C° 0 mm 1 mps 748 mmHg 83%
    03:00 +16°C° 0 mm 1 mps 748 mmHg 84%
    04:00 +16°C° 0 mm 1 mps 748 mmHg 86%
    05:00 +16°C° 0 mm 1 mps 748 mmHg 87%
    06:00 +18°C° 0 mm 2 mps 749 mmHg 81%
    07:00 +20°C° 0 mm 2 mps 749 mmHg 74%
    08:00 +23°C° 0 mm 2 mps 749 mmHg 68%
    09:00 +24°C° 0 mm 2 mps 749 mmHg 62%
    10:00 +25°C° 0 mm 2 mps 749 mmHg 55%
    11:00 +27°C° 0 mm 3 mps 750 mmHg 48%
    12:00 +27°C° 0 mm 3 mps 750 mmHg 47%
    13:00 +28°C° 0 mm 3 mps 749 mmHg 45%
    14:00 +28°C° 0 mm 2 mps 749 mmHg 43%
    15:00 +28°C° 0 mm 2 mps 749 mmHg 45%
    16:00 +28°C° 0 mm 2 mps 749 mmHg 46%
    17:00 +28°C° 0 mm 2 mps 749 mmHg 48%
    18:00 +27°C° 0 mm 2 mps 749 mmHg 54%
    19:00 +25°C° 0 mm 2 mps 749 mmHg 60%
    20:00 +24°C° 0 mm 2 mps 749 mmHg 65%
    21:00 +23°C° 0 mm 2 mps 749 mmHg 68%
    22:00 +21°C° 0 mm 2 mps 749 mmHg 70%
    23:00 +20°C° 0 mm 3 mps 749 mmHg 73%
    Show more